GW6442 Weather Reports


Display with metric or nautical units.
time (UTC)temp
F
wind
direction
speed
MPH
gust
MPH
rain 1hr
in
rain 24hr
in
rain mn
in
humidity
%
barometer
mb
20260906111600 71 0 0.0 1.0 0.00 0.01 0.00 94 1013.1
20260906104555 71 0 0.0 1.0 0.00 0.01 0.00 94 1013.1
20260906103057 72 19 0.0 1.0 0.00 0.01 0.00 94 1012.9
20260906101605 72 0 0.0 1.0 0.00 0.01 0.00 94 1012.5
20260906100058 73 0 0.0 1.0 0.00 0.01 0.00 94 1012.1
20260906094556 73 286 0.0 1.0 0.00 0.01 0.00 94 1011.9
20260906093058 72 0 0.0 1.0 0.00 0.01 0.00 94 1012.0
20260906091604 72 0 0.0 1.0 0.00 0.01 0.00 94 1011.8
20260906090112 72 84 0.0 1.0 0.00 0.01 0.00 94 1011.8
20260906084602 72 0 0.0 0.0 0.00 0.01 0.00 94 1011.7
20260906083100 73 0 0.0 1.0 0.00 0.01 0.00 94 1011.9
20260906081600 72 0 0.0 0.0 0.00 0.01 0.00 94 1011.9
20260906080106 73 0 0.0 0.0 0.00 0.01 0.00 93 1011.8
20260906074558 72 0 0.0 0.0 0.00 0.01 0.00 93 1011.9
20260906073059 73 0 0.0 0.0 0.00 0.01 0.00 93 1012.1
20260906071601 73 0 0.0 1.0 0.00 0.01 0.00 93 1012.4
20260906064557 73 0 0.0 0.0 0.00 0.01 0.00 93 1012.6
20260906063105 73 0 0.0 0.0 0.00 0.01 0.00 93 1012.5
20260906061559 73 0 0.0 0.0 0.00 0.01 0.00 92 1012.5
20260906060151 73 0 0.0 0.0 0.00 0.01 0.00 92 1012.6
20260906054608 74 0 0.0 0.0 0.00 0.01 0.00 92 1012.8
20260906053056 74 0 0.0 0.0 0.00 0.01 0.00 91 1012.9
20260906051556 75 0 0.0 1.0 0.00 0.01 0.00 91 1012.8
20260906050115 75 0 0.0 1.0 0.00 0.01 0.00 90 1012.6
20260906044556 75 84 0.0 1.0 0.00 0.01 0.00 90 1012.8
20260906043112 75 84 0.0 1.0 0.00 0.01 0.00 91 1013.1
20260906041601 75 0 0.0 1.0 0.00 0.01 0.00 92 1013.5
20260906040109 75 0 0.0 1.0 0.00 0.01 0.00 92 1013.7
20260906034603 76 0 0.0 1.0 0.00 0.01 0.01 91 1013.9
20260906033101 76 80 0.0 3.0 0.00 0.01 0.01 91 1013.9
20260906031625 76 90 2.0 10.0 0.00 0.01 0.01 91 1014.1
20260906030055 77 49 2.0 5.0 0.00 0.01 0.01 92 1013.9
20260906024604 76 0 0.0 1.0 0.00 0.01 0.01 91 1013.1
20260906023115 77 355 0.0 1.0 0.00 0.01 0.01 91 1013.2
20260906021607 77 355 0.0 0.0 0.00 0.01 0.01 91 1013.1
20260906014552 76 0 0.0 1.0 0.00 0.01 0.01 91 1012.9
20260906013055 75 0 0.0 0.0 0.01 0.01 0.01 91 1013.2
20260906011605 75 0 0.0 1.0 0.01 0.01 0.01 92 1013.2
20260906010057 75 355 0.0 2.0 0.01 0.01 0.01 91 1013.0
20260906004603 75 0 0.0 1.0 0.01 0.01 0.01 91 1012.4
20260906003059 75 0 0.0 1.0 0.00 0.00 0.00 90 1013.1
20260906001554 75 0 0.0 2.0 0.00 0.00 0.00 90 1013.4
20260905234558 76 71 1.0 3.0 0.00 0.00 0.00 84 1013.3
20260905233058 79 42 3.0 12.0 0.00 0.00 0.00 73 1013.8
20260905231614 82 348 5.0 16.0 0.00 0.00 0.00 66 1013.5
20260905230104 85 218 0.0 3.0 0.00 0.00 0.00 85 1012.7
20260905224553 85 200 0.0 4.0 0.00 0.00 0.00 84 1012.4
20260905223100 86 0 0.0 2.0 0.00 0.00 0.00 83 1012.0
20260905221602 87 148 1.0 2.0 0.00 0.00 0.00 81 1011.9
20260905220056 87 259 0.0 3.0 0.00 0.00 0.00 80 1011.5
20260905214607 88 207 0.0 1.0 0.00 0.00 0.00 77 1011.2
20260905213055 89 137 1.0 4.0 0.00 0.00 0.00 76 1011.8
20260905211558 91 237 0.0 2.0 0.00 0.00 0.00 73 1011.8
20260905210108 94 119 1.0 4.0 0.00 0.00 0.00 68 1011.5
20260905204554 96 123 2.0 6.0 0.00 0.00 0.00 64 1011.6
20260905203058 96 169 1.0 3.0 0.00 0.00 0.00 64 1011.7
20260905201552 98 301 2.0 5.0 0.00 0.00 0.00 57 1011.7
20260905200129 97 252 1.0 4.0 0.00 0.00 0.00 57 1011.5
20260905194557 97 136 1.0 3.0 0.00 0.00 0.00 56 1011.8
20260905193056 97 156 1.0 4.0 0.00 0.00 0.00 58 1012.0
20260905191602 96 228 1.0 5.0 0.00 0.00 0.00 57 1012.5
20260905190104 95 15 1.0 6.0 0.00 0.00 0.00 58 1012.6
20260905184603 97 18 2.0 5.0 0.00 0.00 0.00 58 1013.2
20260905183105 96 140 1.0 4.0 0.00 0.00 0.00 58 1013.3
20260905181603 95 232 1.0 4.0 0.00 0.00 0.00 59 1013.4
20260905180114 94 257 1.0 4.0 0.00 0.00 0.00 59 1013.5
20260905174604 94 281 2.0 4.0 0.00 0.00 0.00 62 1013.7
20260905173124 93 259 1.0 6.0 0.00 0.00 0.00 62 1013.7
20260905171600 93 246 2.0 4.0 0.00 0.00 0.00 64 1013.8
20260905170106 92 250 2.0 5.0 0.00 0.00 0.00 65 1014.2
20260905164614 91 211 2.0 6.0 0.00 0.00 0.00 68 1014.4
20260905163059 90 288 2.0 5.0 0.00 0.00 0.00 68 1014.5
20260905161605 89 294 1.0 6.0 0.00 0.00 0.00 73 1014.7
20260905160107 89 237 1.0 8.0 0.00 0.00 0.00 72 1015.0
20260905154605 88 270 1.0 6.0 0.00 0.00 0.00 76 1015.3
20260905153057 87 232 3.0 5.0 0.00 0.00 0.00 76 1015.4
20260905151602 86 300 1.0 4.0 0.00 0.00 0.00 77 1015.5
20260905144601 85 283 2.0 7.0 0.00 0.00 0.00 80 1015.6
20260905143104 84 234 1.0 5.0 0.00 0.00 0.00 82 1015.8
20260905141559 83 277 2.0 7.0 0.00 0.00 0.00 84 1015.9
20260905140113 82 217 2.0 9.0 0.00 0.00 0.00 85 1015.9
20260905134606 81 260 1.0 4.0 0.00 0.00 0.00 87 1015.9
20260905133101 80 211 1.0 7.0 0.00 0.00 0.00 89 1015.9
20260905131600 79 219 2.0 7.0 0.00 0.00 0.00 91 1015.8
20260905124600 78 230 1.0 4.0 0.00 0.00 0.00 93 1015.9
20260905123105 77 259 1.0 5.0 0.00 0.00 0.00 94 1016.1
20260905121601 77 254 0.0 4.0 0.00 0.00 0.00 94 1015.8
20260905120106 76 225 0.0 4.0 0.00 0.00 0.00 94 1015.8
20260905114610 76 217 0.0 4.0 0.00 0.00 0.00 94 1015.7
20260905113058 76 266 0.0 1.0 0.00 0.00 0.00 94 1015.5